Regional Weather Roundup
Issued by NWS

Home | Current Version | Previous Version | Graphics & Text | Print | Product List | Glossary On
Versions: 1 2 3 4 5 6 7 8 9 10 11 12 13 14 15 16 17 18 19 20 21 22 23 24 25 26 27 28 29 30 31 32 33 34 35 36 37 38 39 40 41 42 43 44 45 46 47 48 49 50
344
ASUS43 KLOT 080503
RWRIL

ILLINOIS REGIONAL WEATHER ROUNDUP
NATIONAL WEATHER SERVICE CHICAGO/ROMEOVILLE IL
1100 PM CST SUN FEB 07 2016

NOTE: "FAIR" INDICATES FEW OR NO CLOUDS BELOW 12,000 FEET WITH NO
SIGNIFICANT WEATHER AND/OR OBSTRUCTIONS TO VISIBILITY.

* THESE STATIONS ARE NOT UNDER NWS QUALITY CONTROL. THEY ALSO MAY NOT
  REPORT WEATHER SUCH AS PRECIPITATION OR FOG.

ILZ001-002-007-009-015-016-024-080600-
NORTHWEST ILLINOIS

CITY           SKY/WX    TMP DP  RH WIND       PRES   REMARKS
MOLINE         CLOUDY    35  28  75 W10       29.74F WCI  27
STERLING*      CLEAR     32  27  80 SW7       29.70F WCI  26
$$

ILZ003-004-008-010-011-017-018-080600-
NORTH CENTRAL ILLINOIS

CITY           SKY/WX    TMP DP  RH WIND       PRES   REMARKS
ROCKFORD       CLEAR     33  27  78 SW7       29.71F WCI  27
FREEPORT*      PTCLDY    32  28  84 SW6       29.70F WCI  26
$$

ILZ005-006-012>014-019>023-080600-
NORTHEAST ILLINOIS

CITY           SKY/WX    TMP DP  RH WIND       PRES   REMARKS
CHICAGO-OHARE  PTCLDY    33  27  78 W8        29.70F WCI  26
CHICAGO-MIDWAY PTCLDY    36  26  67 SW9       29.71F WCI  29
AURORA         CLEAR     33  27  78 SW8       29.71F WCI  26
LANSING*       CLEAR     33  27  79 W7        29.72F WCI  27
WAUKEGAN       CLEAR     32  27  81 SW8       29.66F WCI  25
DUPAGE AIRPORT CLEAR     31  25  78 SW7       29.70F WCI  24
WHEELING       CLEAR     34  27  75 SW7       29.71F WCI  28
NORTHERLY ISL    N/A     37  27  67 W10         N/A  WCI  30
$$

LMZ740>746-080600-
SOUTHERN LAKE MICHIGAN

STATION/POSITION SKY/WX   TEMP    WIND        PRES    VSBY  WAVE
                          AIR SEA DIR/SP/G                  HT/PER
                          (F)     (DEG/KT/KT) (MB)    (MI)  (FT/S)
HARRISON CRIB              39     260/ 18/ 20   N/A
BURNHAM HARBOR             36     260/  9/ 11   N/A
CALUMET HARBOR             37     240/  7/ 12 1006.2F
BURNS HARBOR               38     250/ 13/ 15 1007.5F
MICHIGAN CITY              35     220/ 12/ 13   N/A
$$

ILZ025>027-034>036-040-047-049-050-058-095>099-080600-
WEST-CENTRAL ILLINOIS

CITY           SKY/WX    TMP DP  RH WIND       PRES   REMARKS
QUINCY         CLOUDY    35  29  78 W14       29.83F WCI  26
GALESBURG*     PTCLDY    32  28  85 W9        29.77F WCI  24
MACOMB*        MOCLDY    33  30  86 W10       29.81F WCI  25
$$

ILZ028>032-037-038-041>044-048-051>054-059>061-080600-
CENTRAL ILLINOIS

CITY           SKY/WX    TMP DP  RH WIND       PRES   REMARKS
BLOOMINGTON    PTCLDY    32  29  89 SW6       29.77F WCI  26
DECATUR        MOCLDY    37  30  75 SW6       29.79F WCI  32
PEORIA         CLOUDY    36  26  67 W7        29.78F WCI  30
SPRINGFIELD    CLOUDY    36  31  82 W10       29.81F WCI  28
TAYLORVILLE    NOT AVBL
$$

ILZ033-039-045-046-055>057-062-063-080600-
EAST-CENTRAL ILLINOIS

CITY           SKY/WX    TMP DP  RH WIND       PRES   REMARKS
CHAMPAIGN      LGT RAIN  38  31  76 W18       29.79S WCI  28
MATTOON        LGT RAIN  38  32  79 W17G28    29.81R WCI  28
$$

ILZ079-100>102-080600-
SOUTHWEST ILLINOIS

CITY           SKY/WX    TMP DP  RH WIND       PRES   REMARKS
BELLEVILLE     CLOUDY    41  29  61 SW8       29.84F
CAHOKIA*       PTCLDY    40  30  67 W9        29.87F
SPARTA*        CLOUDY    41  30  64 NW10      29.88F
$$

ILZ064>066-069>071-074>076-080>082-084>086-088>090-092>094-080600-
SOUTH-CENTRAL ILLINOIS

CITY           SKY/WX    TMP DP  RH WIND       PRES   REMARKS
CARBONDALE     CLOUDY    43  31  62 W7        29.87F
MT. VERNON     MOCLDY    37  30  75 CALM      29.85F
CENTRALIA*     CLOUDY    38  35  87 SW6       29.84F WCI  34
SALEM*         CLOUDY    38  34  84 SW3       29.84F
$$

ILZ067-068-072-073-078-083-087-091-080600-
SOUTHEAST ILLINOIS

CITY           SKY/WX    TMP DP  RH WIND       PRES   REMARKS
LAWRENCEVILLE  CLOUDY    43  31  62 MISG      29.82F
HARRISBURG*    CLOUDY    42  36  78 SW3       29.86F
ROBINSON*      CLOUDY    42  31  63 SW13G21   29.82F
CARMI*         CLOUDY    42  35  75 SW6       29.85F
$$

ABBREVIATIONS USED IN REMARKS
   TC - TEMPERATURE IN CELSIUS
  WCI - WIND CHILL INDEX
   HX - HEAT INDEX
  VSB - VISIBILITY
$$





USA.gov is the U.S. government's official web portal to all federal, state and local government web resources and services.